Location: Poughquag
(41.6090°N, 73.6820°W)
Time: 12:15:43
(UTC-04:00)

Vanguard 2 - Pass Details

Date: 03 June 2020
Orbit: 552 x 2938 km, 32.9° (Epoch: 05 July)

Event Time Altitude Azimuth Distance (km) Brightness Sun altitude
Rises 23:07:22 0° 271° (W) 5,091 12.1 -21.4°
Reaches altitude 10° 23:11:48 10° 262° (W) 3,654 11.2 -21.8°
Maximum altitude 23:18:58 28° 208° (SSW) 1,870 9.1 -22.3°
Enters shadow 23:19:18 28° 203° (SSW) 1,846 9.1 -22.3°
Drops below altitude 10° 23:23:50 10° 149° (SSE) 2,420 - -22.7°
Sets 23:26:11 0° 137° (SE) 3,139 - -22.8°
